Flag for Switzerland Weather past 2 weeks in Chur, Graubünden, Switzerland

Now
60 °F

Passing clouds.


Feels Like: 59 °F
Forecast: 49 / 80 °F
Wind: 6 mph from Northeast

Location: Chur-Ems

Current Time: Sep 2, 2014 at 9:22:55 PM

Latest Report: Sep 2, 2014 at 8:00 PM


Visibility: 10 mi

Pressure: 30.09 "Hg

Humidity: 61%

Dew point: 46 °F

Location of ChurLocation

Historic Weather in Chur — Graph

°F

Chur temperature yesterday

Maximum temperature yesterday: 61 °F (at 4:00 PM)
Minimum temperature yesterday: 51 °F (at 5:00 AM)
Average temperature yesterday: 54 °F

Past Weeks' High & Low Weather Summary

 TemperatureHumidityPressure
High74 °F (Aug 28, 4:00 PM)97% (Aug 27, 3:00 AM)30.19 "Hg (Aug 27, 3:00 AM)
Low46 °F (Aug 25, 4:00 AM)41% (Aug 24, 4:00 PM)29.78 "Hg (Aug 26, 3:00 PM)
Average59 °F76%30.01 "Hg
* Reported Aug 18 7:00 PM — Sep 2 7:00 PM, Chur, Weather by CustomWeather, © 2014

Note: Actual official high and low records may vary slightly from our data, if they occured in-between our weather recording intervals... More about our weather records

Advertising

Chur weather history for previous 24 hours

 ConditionsComfort  
Time TempWeatherWind HumidityBarometerVisibility
7:00 PM
Sep 2
60 °FCool.8 mph63%30.08 "HgN/A
6:00 PM61 °FRefreshingly cool.8 mph58%30.07 "HgN/A
5:00 PM61 °FPartly sunny.12 mph61%30.06 "Hg7 mi
4:00 PM62 °FMild.12 mph55%30.07 "HgN/A
3:00 PM62 °FRefreshingly cool.13 mph59%30.08 "HgN/A
2:00 PM61 °FPartly sunny.9 mph57%30.09 "Hg7 mi
1:00 PM59 °FCool.9 mph63%30.10 "HgN/A
12:00 PM57 °FCool.9 mph69%30.11 "HgN/A
11:00 AM56 °FPartly sunny.3 mph80%30.13 "Hg6 mi
10:00 AM54 °FCool.1 mph82%30.14 "HgN/A
9:00 AM53 °FCool.1 mph87%30.15 "HgN/A
8:00 AM52 °FFog.2 mph91%30.15 "Hg6 mi
7:00 AM52 °FCool.No wind90%30.15 "HgN/A
6:00 AM51 °FCool.1 mph92%30.15 "HgN/A
5:00 AM52 °FFog.No wind93%30.15 "Hg5 mi
4:00 AM51 °FCool.1 mph93%30.15 "HgN/A
3:00 AM51 °FCool.1 mph92%30.16 "HgN/A
2:00 AM51 °FCool.No wind94%30.17 "HgN/A
1:00 AM50 °FCool.No wind93%30.18 "HgN/A
12:00 AM51 °FCool.1 mph92%30.19 "HgN/A
11:00 PM
Sep 1
51 °FFog.1 mph91%30.19 "Hg9 mi
10:00 PM53 °FCool.1 mph87%30.18 "HgN/A
9:00 PM54 °FCool.7 mph82%30.16 "HgN/A
Weather by CustomWeather, © 2014

See weather overviewHow to use our weather pages